User: anonymous   Login
Location: Unspecified
(0.0000°N, 0.0000°E)
Time: 20:24:09
(UTC+00:00)
Language:

STARLINK-5674 - Orbit

View from above orbital plane
View from above orbital plane
View from above satellite
View from above satellite

Ground track
Ground track

The orbit is defined by the following mean orbital elements,

1 55465U          26145.58222676 +.00000000 +00000-0 +66169-4 0 00006
2 55465  43.0034 254.3058 0001447 275.0156  85.0531 15.27564655    08
Epoch (UTC): 25 May 2026 13:58:24
Eccentricity: 0.0001447
inclination: 43.0034°
perigee height: 482 km
apogee height: 484 km
right ascension of ascending node: 254.3058°
argument of perigee: 275.0156°
revolutions per day: 15.27564655
mean anomaly at epoch: 85.0531°

The dashed part of the orbit path shows where the satellite is in the earth's shadow,  

DLR